Tracking 23758 objects as of 28-Oct-2021
HD Live streaming from Space Station
objects crossing your sky now

OBJECT K

Track OBJECT K now!
10-day predictions


NORAD ID: 43840
Int'l Code: 2018-102K
Perigee: 529.9 km
Apogee: 550.1 km
Inclination: 97.5 °
Period: 95.3 minutes
Semi major axis: 6910 km
RCS: Unknown
Launch date: December 7, 2018
Source: (TBD)
Launch site: Jiuquan Satellite Launch Center, China (JSC)
aabbcc
Your satellite tracking list
Your tracking list is empty




NASA's NSSDC Master Catalog

Two Line Element Set (TLE):
1 43840U 18102K   21301.18346829  .00001786  00000-0  11031-3 0  9990
2 43840  97.5301  17.3845 0014562 264.9063 146.8267 15.11095518159333
Source of the keplerian elements: AFSPC